Location: Chrząstowo
(52.0654°N, 17.1290°E)
Time: 06:41:06
(UTC+01:00)

Envisat - Pass Details

Date: 16 December 2019
Orbit: 764 x 766 km, 98.1° (Epoch: 17 January)

Event Time Altitude Azimuth Distance (km) Brightness Sun altitude
Rises 06:53:55 0° 14° (NNE) 3,247 6.1 -8.6°
Reaches altitude 10° 06:56:14 10° 15° (NNE) 2,316 5.4 -8.3°
Maximum altitude 07:01:21 88° 105° (ESE) 774 3.1 -7.6°
Drops below altitude 10° 07:06:26 10° 196° (SSW) 2,298 5.7 -6.9°
Sets 07:08:44 0° 196° (SSW) 3,219 6.4 -6.6°
